Wind_Speed
15 15 15 15 16 17 16 15 14 14 14 14 15 17 18 19 20 21 21 22 22 23 23 24 24 23 23 23 23 21 20 19 19 20 17 14 17 21 20 18 15 14 14 11 10 8 4 5 4 6 9 13 13 7 4 3 4 6 5 6 10 13 10 8 14 15 15 15 12 12 11 12 13 14 16 15 14 13 11 9 10 10 7 7 12 17 18 17
15 15 15 15 16 16 16 15 15 15 14 14 15 16 17 18 18 19 20 20 21 22 22 23 23 23 22 22 21 19 18 17 17 17 14 13 19 21 19 17 15 15 14 12 11 8 7 10 7 6 8 9 7 5 3 4 3 9 10 6 9 12 11 12 14 11 13 14 12 11 11 13 15 15 15 15 16 13 12 14 15 14 10 8 10 15 19 16
15 14 14 14 15 16 16 16 15 15 15 15 15 15 16 17 17 18 18 19 20 20 21 22 22 22 21 19 18 17 16 15 16 15 13 15 20 19 17 17 16 16 14 13 12 10 12 13 7 1 3 3 5 6 3 4 3 8 9 7 10 14 13 10 11 9 12 13 12 13 13 14 15 14 16 15 16 15 15 14 13 11 8 8 10 13 17 17
15 14 14 14 15 15 16 16 15 15 15 15 15 15 15 16 17 17 18 18 19 19 20 20 20 20 18 17 16 15 14 13 15 15 13 15 19 18 17 17 17 16 14 14 13 14 15 13 11 8 10 9 11 12 8 4 3 2 3 6 16 15 9 8 9 10 12 12 12 14 12 12 11 10 14 16 15 15 14 10 6 5 5 7 11 13 16 17
15 15 14 14 14 15 16 17 16 15 15 15 15 16 16 16 16 17 17 17 18 18 18 19 18 16 15 15 13 13 12 11 12 12 12 15 17 17 18 17 18 17 15 17 15 16 16 14 14 11 12 13 12 13 11 5 4 3 5 11 12 11 12 12 10 11 12 13 13 14 13 11 9 9 14 17 14 12 10 9 4 2 3 6 10 13 14 16
16 15 15 14 14 14 15 16 16 15 15 15 15 16 16 16 16 16 16 17 17 17 17 16 15 14 13 13 12 11 11 11 8 4 7 15 16 17 19 19 20 18 18 19 16 18 17 15 17 15 15 15 13 12 10 5 1 7 11 7 6 9 14 15 13 12 12 13 12 12 11 8 8 10 14 16 15 12 9 9 3 1 4 6 9 10 13 14
16 16 15 15 14 14 15 16 16 16 15 15 15 16 16 16 16 16 16 16 17 17 16 14 12 11 12 12 12 12 11 10 10 4 3 14 17 17 20 21 21 21 20 19 20 20 18 18 18 14 12 12 11 7 6 8 4 8 11 5 5 10 12 13 12 9 10 12 11 8 7 5 7 9 13 15 17 15 13 10 5 2 4 7 9 10 12 14
16 16 16 15 15 14 14 15 16 16 15 15 15 16 16 17 17 16 16 16 16 16 15 12 11 11 12 12 12 13 10 8 13 11 5 11 17 19 21 22 22 22 21 21 22 22 20 20 17 10 9 12 12 11 10 9 8 8 9 8 9 12 12 11 10 10 13 15 15 11 7 6 6 10 15 19 20 16 13 9 6 4 6 8 10 11 12 13
17 16 16 15 15 15 15 15 16 16 15 15 15 15 16 16 17 16 16 17 16 16 14 12 10 11 11 12 12 13 11 9 13 13 8 9 15 19 21 23 22 23 22 22 24 24 24 21 16 8 6 9 12 15 12 10 11 10 9 11 12 11 11 12 12 13 13 14 15 13 10 7 7 13 17 18 18 15 10 6 4 4 8 10 10 10 11 12
18 17 16 16 15 15 15 15 16 16 16 15 15 15 15 15 17 16 16 17 16 16 14 12 11 11 11 12 13 12 12 9 9 11 10 10 14 18 20 23 23 24 23 23 27 27 24 18 15 10 5 8 12 10 8 10 12 12 8 10 12 12 11 13 14 12 12 13 11 12 12 10 8 11 14 15 14 11 9 6 5 6 8 10 10 10 10 13
18 18 17 16 15 15 15 16 16 16 16 15 15 15 15 15 15 15 16 16 16 15 14 12 11 11 11 13 12 11 10 7 5 7 9 11 13 16 19 22 24 25 24 25 28 27 24 16 12 11 12 10 10 7 7 12 13 10 8 12 13 11 12 14 14 8 11 13 9 11 14 12 10 8 10 14 11 8 9 8 7 8 9 8 9 10 11 12
19 19 18 17 16 16 16 16 17 16 16 16 15 15 16 15 14 14 15 16 16 15 14 13 11 11 12 13 11 8 8 7 6 5 9 11 12 14 17 20 23 25 25 27 28 25 23 16 9 9 14 10 11 7 8 10 13 10 10 14 12 11 14 14 11 8 12 13 10 15 19 15 11 9 10 11 8 8 9 8 10 11 11 9 8 11 11 10
19 19 19 18 17 16 17 17 17 17 16 16 15 15 16 16 14 13 13 15 16 15 14 13 12 11 12 11 9 10 14 14 10 6 9 11 12 15 17 19 23 26 26 27 27 24 21 14 6 9 15 15 13 6 7 6 12 15 13 12 12 15 15 12 11 12 14 13 11 15 20 16 11 9 9 10 11 10 9 10 11 11 11 9 9 11 11 9
19 19 19 19 18 18 18 18 19 18 17 17 16 15 15 16 15 12 11 13 15 15 14 13 12 12 11 9 8 11 16 19 16 11 11 12 15 16 17 19 22 27 26 27 27 25 20 9 7 15 19 18 9 7 7 9 16 15 13 11 12 18 17 13 12 12 13 14 10 10 17 15 12 12 9 11 14 10 12 13 10 10 11 8 8 11 10 9
20 20 20 20 19 19 19 20 20 19 17 17 16 15 15 15 14 13 12 12 13 15 14 13 13 11 10 7 8 12 15 18 18 15 13 14 17 17 16 18 23 27 26 27 28 24 16 7 12 18 18 17 12 11 10 17 19 12 14 14 13 16 17 14 12 13 14 14 12 9 15 17 14 13 10 13 14 8 13 16 12 12 10 6 7 10 10 10
21 20 20 20 20 20 20 21 21 20 18 17 16 15 14 14 13 13 12 10 11 14 15 14 12 10 10 7 8 10 13 15 16 14 14 18 19 17 15 16 23 27 27 28 27 21 13 11 17 20 17 14 11 13 11 17 17 13 15 15 15 16 15 15 14 15 12 11 15 10 12 19 15 14 13 14 12 6 9 13 14 14 10 6 8 9 9 11
22 21 21 20 20 21 21 21 22 21 18 17 17 14 13 13 10 9 11 12 11 11 15 15 11 9 7 3 3 7 10 10 12 13 16 20 19 16 14 16 24 27 26 25 23 19 11 12 19 20 17 15 13 14 16 16 14 15 19 16 17 16 14 18 15 16 13 11 15 9 11 21 17 15 16 16 13 8 9 11 14 15 11 6 7 8 9 10
23 22 22 21 21 21 21 22 23 22 18 16 17 14 12 10 6 8 11 12 11 10 14 14 11 10 3 5 9 8 6 5 9 14 17 19 18 14 12 17 24 24 22 21 20 19 11 13 18 19 17 17 17 19 21 22 17 19 26 20 20 18 15 18 15 16 14 11 12 9 15 20 16 16 17 17 15 11 11 12 13 14 12 8 8 9 10 11
23 23 23 22 21 21 20 21 23 23 20 14 15 15 12 8 6 8 10 10 10 11 13 13 14 11 6 5 8 7 2 3 8 14 17 17 19 15 12 16 22 20 20 19 20 20 15 18 21 22 21 18 18 19 19 28 22 21 26 19 20 21 18 18 14 16 16 14 14 11 16 18 15 17 18 19 15 12 13 12 10 12 12 11 10 9 9 10
23 23 23 22 22 21 20 21 22 24 21 14 12 13 12 10 9 8 11 14 14 14 13 13 18 14 10 9 5 5 5 5 10 13 17 17 21 20 16 17 19 20 23 22 20 20 17 20 25 27 24 20 17 16 17 26 22 21 23 20 22 22 23 25 18 16 16 15 16 13 14 16 15 17 18 17 15 16 18 14 11 11 10 10 11 10 9 9
24 23 23 22 21 21 20 20 21 23 21 14 11 11 10 9 12 13 16 20 17 15 15 15 19 19 13 11 12 5 7 10 13 13 16 17 20 22 22 21 22 23 25 23 18 18 19 21 27 29 24 20 17 15 19 21 19 23 26 21 23 24 25 28 23 18 16 14 14 14 13 15 16 17 17 17 16 20 21 16 15 13 10 10 10 10 9 9
24 23 22 22 21 20 19 19 20 22 19 13 10 9 8 8 12 15 17 25 21 14 16 18 21 22 14 15 18 13 11 16 17 16 18 19 21 23 24 24 25 25 24 23 21 20 24 25 27 28 24 21 18 16 21 21 20 25 28 19 20 25 24 24 24 19 17 16 15 16 15 15 17 15 16 18 18 21 20 17 17 15 13 11 10 10 10 11
24 23 22 22 21 19 19 18 20 20 16 12 9 5 3 5 9 12 15 27 25 14 17 21 22 22 16 20 19 13 17 23 21 20 20 22 24 24 24 24 25 25 24 27 28 25 26 27 25 25 23 23 22 20 22 23 22 24 26 23 21 25 25 27 27 19 19 21 18 20 19 18 20 16 17 18 18 20 19 18 18 17 16 13 11 11 11 12
24 23 22 21 21 19 18 18 19 18 14 9 5 4 5 2 6 11 15 26 30 17 16 21 24 24 20 22 13 8 21 26 21 21 23 24 26 25 24 23 24 26 25 28 30 27 25 25 24 25 24 23 25 24 23 25 26 24 21 23 25 27 29 30 29 20 22 23 19 22 22 22 24 20 19 19 18 21 20 19 19 17 17 15 15 14 12 13
24 23 22 21 21 19 17 18 18 17 11 7 9 11 11 8 6 13 17 22 29 19 12 19 26 26 22 20 11 13 23 26 21 21 24 26 27 26 24 23 24 27 27 27 27 27 25 23 22 27 28 25 25 25 24 23 25 26 22 20 21 24 26 28 29 25 25 24 22 24 19 18 25 23 23 23 21 23 22 21 22 21 20 19 20 18 14 14
24 23 22 21 21 19 17 17 17 16 10 10 14 14 13 11 11 15 16 19 27 23 13 18 24 25 23 22 17 18 24 25 22 21 23 27 29 26 24 23 26 27 25 25 25 27 27 24 23 26 27 27 26 26 25 22 21 25 22 17 19 21 19 20 27 30 30 27 27 29 17 15 25 27 26 28 27 26 25 24 25 25 23 23 23 21 19 16
23 23 22 21 21 20 17 15 16 15 12 14 16 13 10 10 11 12 12 12 17 16 11 17 21 20 22 25 25 23 23 21 21 23 25 28 28 27 25 24 26 27 24 24 26 27 28 26 25 26 26 29 29 27 26 24 24 24 20 12 17 27 24 19 26 33 31 25 25 32 25 18 27 30 28 31 30 28 27 26 27 27 24 24 25 25 23 20
23 22 22 20 20 22 18 13 14 16 14 15 16 13 8 6 9 9 7 5 6 5 7 17 19 16 18 23 27 27 23 17 20 26 28 28 27 29 29 26 25 25 24 25 28 28 27 28 28 26 26 27 28 28 26 24 23 23 22 15 14 25 27 24 26 35 31 23 22 32 30 16 21 31 29 30 32 31 32 30 28 28 27 26 27 27 26 24
22 22 22 20 19 22 20 13 13 17 16 15 16 13 10 8 9 8 3 3 4 4 7 16 19 17 17 22 27 27 23 17 19 24 28 29 27 29 31 27 24 23 24 25 28 26 25 28 30 29 29 27 25 27 26 21 19 19 24 23 17 21 25 20 16 23 21 17 17 30 34 17 12 27 32 32 34 34 35 36 31 29 29 29 29 29 28 26
22 22 22 21 19 20 21 14 13 18 16 15 15 13 12 11 10 7 2 7 9 7 6 15 20 18 18 24 27 28 25 20 18 21 28 30 27 29 31 27 25 24 24 25 27 27 25 24 28 30 30 28 26 29 28 22 20 20 22 22 18 18 21 17 15 12 6 7 9 17 27 18 9 22 33 31 30 29 30 34 34 32 32 31 30 30 28 28
21 21 23 22 20 21 19 13 15 18 14 14 15 13 14 13 11 8 6 13 14 10 9 14 19 18 20 25 28 29 27 23 20 22 30 32 27 30 33 27 26 25 25 27 27 28 28 25 27 27 25 25 25 29 29 23 22 23 23 21 17 17 19 16 14 10 2 3 8 9 13 15 9 20 30 27 27 27 25 27 30 33 35 34 32 31 29 28
20 21 22 23 22 21 16 11 15 18 14 14 15 15 15 13 13 14 15 15 10 7 14 15 17 19 20 24 27 29 29 25 24 25 31 35 30 33 36 30 28 25 23 28 28 28 31 29 27 24 21 22 25 28 26 23 24 24 25 26 15 8 10 9 5 4 3 5 9 11 15 17 17 20 27 29 29 26 24 22 23 26 30 33 35 34 31 30
20 21 22 23 24 21 14 12 16 17 15 15 15 17 16 10 11 19 24 21 9 7 13 13 16 19 20 25 27 28 28 26 27 27 30 35 32 32 37 33 29 25 21 24 28 28 28 29 28 27 24 24 25 26 24 24 27 27 26 26 15 4 3 2 1 3 6 8 12 18 18 17 20 22 23 25 24 24 23 21 21 21 22 26 30 32 33 31
20 22 23 23 24 20 14 14 17 18 17 16 16 18 17 13 15 20 26 29 23 15 12 12 16 20 22 27 28 27 27 26 28 28 29 35 34 32 36 35 30 27 24 22 26 27 21 22 30 30 27 28 26 25 23 22 26 29 28 24 17 8 4 2 4 4 6 11 16 19 17 17 18 13 8 8 10 17 23 23 19 17 17 20 25 29 31 31
20 23 23 22 22 20 16 16 18 20 20 19 19 20 21 21 22 24 27 32 31 25 20 17 18 22 26 26 26 27 27 26 28 29 31 36 36 33 34 37 33 29 28 24 24 26 21 21 30 31 27 28 28 28 27 25 26 29 30 27 20 15 11 9 11 14 14 12 12 16 17 20 23 13 4 3 4 8 16 20 21 22 23 26 27 27 27 27
21 22 23 22 20 18 17 18 19 21 22 21 22 25 29 29 26 26 29 30 28 25 21 22 22 22 28 26 25 27 27 27 27 29 31 35 35 32 33 36 35 33 32 27 22 24 23 20 24 30 28 23 23 29 33 29 23 23 26 25 21 20 20 15 11 18 19 9 6 14 15 11 17 17 11 10 6 11 17 22 24 25 28 30 28 24 25 27
22 22 22 21 17 15 18 20 20 21 23 23 26 30 33 33 30 30 30 28 27 24 24 27 21 15 22 25 26 27 27 28 28 27 29 33 32 32 32 33 35 35 34 30 24 22 22 18 18 28 28 21 20 28 36 32 22 21 24 21 20 24 27 20 7 8 12 5 4 15 19 13 14 16 15 13 13 22 24 23 19 18 21 25 25 23 24 28
21 21 19 18 15 16 19 20 21 22 23 25 30 33 33 34 34 34 33 30 28 27 30 31 21 14 16 20 25 26 28 30 30 28 28 30 31 31 33 32 34 36 35 33 28 23 22 21 20 27 27 23 24 29 34 33 26 23 23 22 23 23 25 23 12 4 5 3 2 8 15 17 16 16 19 19 23 30 28 19 13 12 15 19 21 20 20 26
20 19 15 11 11 15 18 18 20 23 25 29 34 34 34 35 34 34 35 32 29 29 30 30 25 22 24 21 22 27 29 31 32 30 27 27 28 30 33 33 32 34 36 37 34 28 24 21 19 29 32 27 30 33 35 32 27 23 22 24 25 19 21 25 20 10 6 3 1 3 6 6 7 13 21 24 26 29 25 16 9 10 13 15 15 14 13 20
19 16 10 6 10 12 12 15 19 23 29 33 35 34 33 34 33 34 34 32 30 29 28 29 30 28 26 23 18 22 30 32 32 30 28 26 24 25 31 33 33 33 33 36 37 33 31 26 19 25 33 32 33 35 35 32 26 24 26 28 26 20 20 22 21 18 10 4 2 2 4 5 1 12 23 26 25 22 21 17 11 10 11 12 12 10 9 12
17 11 2 3 7 7 7 13 20 25 29 33 34 33 32 32 33 34 32 29 29 29 30 31 32 31 27 24 21 18 22 29 32 31 29 28 25 23 28 33 34 32 30 34 40 37 33 29 22 24 34 34 33 34 33 31 28 25 26 28 25 19 16 9 9 18 18 9 6 5 1 1 6 14 22 23 19 17 18 18 15 12 11 12 13 10 6 7
16 7 9 12 12 8 9 13 16 20 27 31 32 32 31 30 31 33 30 27 26 28 31 33 33 32 31 28 25 18 12 15 26 33 31 28 29 26 25 29 34 34 31 32 38 39 35 29 21 26 36 34 29 31 32 30 29 26 24 25 23 20 19 11 5 15 20 13 11 8 5 7 11 14 18 19 17 17 18 15 12 11 12 13 13 9 5 7
16 9 16 19 18 14 12 16 15 17 23 26 27 28 27 27 28 30 29 26 25 26 28 31 32 31 29 28 27 21 16 16 16 26 32 30 29 27 24 25 30 35 35 33 33 36 37 32 22 20 31 36 31 29 33 32 29 29 29 28 27 25 26 21 10 12 17 14 13 8 4 9 14 14 16 17 16 18 18 11 9 12 15 15 13 9 8 8
16 11 18 20 20 18 18 19 18 18 19 20 22 24 25 26 29 30 29 27 25 25 25 26 27 26 23 24 25 22 18 18 20 18 25 31 32 27 24 25 28 35 37 34 33 35 34 31 24 13 13 23 25 23 29 36 32 31 30 27 28 29 27 23 16 11 11 14 16 10 6 13 19 19 20 17 14 13 11 8 10 13 15 15 13 13 13 11
15 11 17 20 17 18 21 21 20 19 18 19 21 24 24 26 29 29 30 30 28 27 27 27 25 23 21 21 23 24 21 19 23 21 16 21 29 28 25 25 27 33 36 33 31 34 33 28 26 20 8 9 14 14 20 33 33 28 28 28 26 26 25 24 22 17 9 12 17 12 15 22 24 22 22 20 15 12 10 10 13 13 13 13 14 13 12 12
11 9 16 21 22 22 21 19 19 20 20 21 24 24 24 27 28 27 28 30 29 29 30 30 27 22 20 20 23 26 24 20 22 23 21 18 20 22 23 28 29 29 34 35 31 34 36 31 29 30 24 16 17 16 19 29 32 24 24 30 30 26 23 23 26 26 19 14 16 15 17 24 27 25 23 22 19 16 15 14 12 12 13 12 10 11 12 13
10 9 14 20 23 24 21 18 18 20 20 22 27 27 23 24 26 25 25 26 27 27 29 29 27 25 23 23 23 24 24 21 20 22 22 22 17 10 10 24 33 30 30 36 36 33 32 32 31 32 29 23 18 13 13 23 29 24 22 28 30 26 25 26 27 31 29 21 17 18 20 23 28 29 26 26 24 18 15 14 13 12 14 13 10 10 11 13
12 13 16 17 17 20 21 20 19 20 19 19 24 28 26 24 24 24 24 25 27 27 26 26 27 29 29 26 23 25 24 23 23 21 22 25 23 13 6 14 28 34 34 34 36 34 26 22 27 29 26 24 22 17 12 16 23 25 23 26 30 29 29 31 26 23 23 20 17 21 25 27 28 29 27 26 23 16 14 15 14 13 15 16 15 12 12 14
15 16 17 19 19 19 20 19 16 16 18 16 19 24 27 27 26 26 24 24 26 23 23 26 29 32 32 27 24 27 25 22 21 20 20 21 19 15 11 9 13 24 36 35 31 34 30 17 17 23 21 21 25 26 23 19 19 21 20 18 22 25 26 28 28 25 21 19 19 21 26 29 29 27 27 24 20 16 15 17 18 17 16 16 16 15 16 17
15 17 17 19 23 22 19 19 16 14 16 16 17 20 23 25 27 28 26 24 24 19 17 24 31 33 34 31 27 26 21 15 12 12 18 23 19 17 14 8 6 9 30 39 29 27 31 24 16 18 18 16 20 25 29 27 21 21 22 19 18 20 21 24 26 28 27 25 23 21 22 27 28 27 25 21 20 20 20 19 20 18 16 16 17 19 21 21
14 16 17 18 23 25 22 20 17 14 12 10 15 19 20 23 23 25 28 27 27 23 18 20 28 30 32 32 28 25 20 15 8 3 8 17 20 19 13 6 6 9 12 29 28 20 23 22 18 19 18 17 19 20 24 29 28 28 29 27 23 20 22 23 22 25 30 32 31 29 26 24 24 23 21 22 23 25 22 19 18 17 17 19 22 24 23 22
15 16 17 18 21 25 23 21 19 17 13 9 16 18 18 20 21 22 26 28 27 25 19 18 21 25 26 25 22 23 24 20 11 5 7 14 23 25 19 11 8 12 13 12 21 19 18 17 16 16 13 17 24 22 19 21 23 24 28 29 24 20 21 19 14 14 18 22 28 34 30 23 23 24 23 24 24 22 19 16 17 19 22 24 24 23 21 23
Wind_Direction
314 314 316 319 323 327 323 313 307 305 303 299 294 290 287 284 283 283 284 286 288 290 292 294 295 295 293 290 287 284 279 273 268 258 249 239 236 235 229 224 222 227 227 221 222 224 204 167 127 108 118 110 111 102 83 136 226 246 243 230 200 168 162 169 141 129 127 129 131 134 138 134 123 112 106 109 114 112 122 129 139 172 199 156 140 139 145 150
315 314 315 317 320 324 325 317 308 306 305 303 299 294 290 288 286 286 287 287 290 292 293 296 297 296 295 293 289 285 280 273 265 255 247 234 230 228 222 218 214 217 215 212 215 203 176 155 111 82 112 106 119 111 108 167 233 226 221 276 237 175 134 134 132 135 140 135 133 133 138 134 125 120 117 119 126 133 140 148 162 169 164 157 153 144 146 152
315 315 314 315 317 321 324 321 311 306 305 306 304 300 294 290 289 288 288 289 291 293 295 297 297 297 296 294 291 286 279 272 265 255 246 233 227 224 216 211 207 209 206 205 207 189 176 156 130 239 177 135 203 211 193 185 260 237 244 276 196 141 108 131 135 144 147 137 137 140 149 146 140 133 129 130 129 138 152 156 166 164 151 157 161 152 151 152
314 314 314 314 316 318 322 322 314 306 305 306 307 305 300 293 291 290 290 291 293 295 297 298 298 298 296 294 292 286 281 274 265 251 236 229 227 221 211 207 204 204 199 201 198 179 180 162 154 205 231 255 244 231 221 213 303 252 33 71 141 123 93 154 145 130 130 131 142 148 162 162 157 153 141 142 140 149 170 181 187 173 144 155 165 164 159 157
312 311 313 313 314 316 319 322 318 308 303 305 308 308 305 298 294 293 294 294 295 297 298 300 299 297 296 293 290 287 284 270 260 253 232 219 221 216 207 205 202 200 194 199 190 172 183 170 159 191 225 240 232 225 222 226 297 196 105 75 117 112 106 145 145 126 131 141 150 152 160 161 161 163 147 146 142 148 189 210 207 178 135 155 174 172 164 164
311 309 310 311 312 314 316 320 319 312 303 303 307 309 308 302 298 296 297 297 298 300 300 302 299 295 293 289 288 284 274 257 250 279 235 210 208 208 204 202 199 197 194 195 180 172 188 175 168 192 207 220 222 226 230 212 190 140 132 102 132 130 112 132 140 128 133 140 148 160 163 158 154 149 146 148 138 142 198 220 214 155 136 152 175 177 168 169
311 309 308 309 311 312 314 317 319 315 306 301 304 308 310 306 301 299 299 300 300 302 302 302 296 292 290 284 285 275 268 259 241 247 213 202 200 199 199 200 197 195 193 189 177 174 190 182 171 182 195 219 222 210 217 201 175 130 136 120 140 143 122 130 142 136 139 138 138 158 162 150 154 151 152 147 136 153 196 218 237 210 148 154 172 178 172 175
311 309 307 307 308 310 312 314 317 317 308 301 302 304 309 307 304 302 301 301 301 303 302 300 294 288 287 282 280 272 269 262 238 231 210 201 198 195 196 197 196 194 191 185 178 179 186 180 167 176 204 220 236 250 239 197 164 162 151 128 130 135 130 136 142 135 134 136 135 132 117 117 138 137 143 145 146 168 194 210 236 211 162 166 174 177 175 178
313 310 307 305 306 307 309 312 314 317 311 303 301 301 306 306 306 305 303 303 301 302 300 297 292 285 286 280 279 278 266 249 237 228 215 208 200 197 196 194 195 193 190 182 178 183 183 175 165 177 225 229 259 269 234 179 150 157 135 132 149 138 136 146 139 137 135 135 140 133 120 121 129 124 133 150 162 178 191 198 216 185 163 171 179 176 172 174
313 312 308 304 304 305 307 310 311 314 312 304 299 300 302 302 305 306 304 304 301 301 299 296 290 284 285 279 279 277 262 250 249 234 214 209 204 201 195 192 194 191 188 182 181 186 180 171 166 176 261 271 274 274 204 179 154 143 129 140 151 139 150 156 137 134 136 137 145 139 134 135 139 131 136 162 180 191 193 184 175 166 160 166 177 174 169 170
312 312 310 306 303 302 304 307 308 311 311 305 299 298 300 299 302 306 305 304 302 299 297 294 288 286 283 279 279 270 261 262 272 248 214 208 206 202 197 193 191 189 187 182 183 187 184 175 169 199 256 272 277 264 190 195 172 142 141 144 140 142 156 156 142 142 144 143 149 135 129 131 144 152 153 175 192 191 183 171 163 161 157 168 170 165 173 172
310 311 311 308 303 301 301 303 306 308 309 306 299 296 298 297 297 303 305 304 303 298 296 294 288 290 285 281 279 249 223 222 236 226 196 199 202 195 196 195 191 188 185 183 183 185 189 187 180 229 251 260 280 242 171 211 202 167 157 150 151 161 154 152 151 159 154 142 139 130 126 134 152 159 158 174 176 161 163 153 158 163 164 178 166 160 182 184
306 308 309 308 305 301 299 300 303 306 307 305 300 295 295 295 294 298 303 303 304 298 294 293 290 292 289 286 272 221 195 200 214 213 190 187 189 189 191 193 192 189 184 182 181 180 185 188 202 264 259 258 274 219 166 218 185 156 162 164 166 170 158 156 155 154 159 148 145 137 132 142 158 162 160 162 160 161 158 149 161 170 172 175 157 167 192 196
301 304 306 307 304 301 299 298 300 304 305 304 300 295 293 294 293 293 298 301 302 298 292 291 290 291 292 291 263 227 206 207 216 215 204 188 182 188 191 192 191 187 183 181 177 175 181 192 256 270 256 240 233 206 193 171 157 146 162 176 175 175 164 164 165 160 163 158 166 157 141 148 161 167 165 156 165 171 159 163 175 175 176 166 155 182 200 204
297 300 302 304 304 302 300 297 298 301 303 302 298 294 292 293 293 292 295 299 300 296 289 286 286 291 299 287 242 231 220 222 229 217 204 189 183 190 194 194 191 183 179 181 175 170 183 225 266 255 234 214 210 234 210 156 157 158 159 170 183 183 167 166 177 167 164 164 181 181 149 152 164 169 169 164 175 179 161 171 181 183 189 162 164 196 201 205
295 296 298 300 303 303 302 300 299 300 301 300 296 293 293 291 291 293 296 300 300 294 287 282 281 290 300 275 233 238 234 235 237 220 197 186 186 192 194 196 190 180 174 179 174 166 189 236 252 246 224 218 230 237 212 156 160 180 173 174 187 192 174 169 179 176 183 182 187 200 162 162 171 169 169 177 190 194 166 172 176 189 205 167 169 201 197 199
294 294 295 296 299 301 303 303 301 301 301 298 295 291 292 294 295 303 307 300 295 291 283 278 276 285 297 300 307 284 258 241 226 209 190 185 190 189 192 199 186 176 171 172 167 163 185 222 236 237 224 233 231 223 220 176 163 191 187 182 190 199 183 173 182 185 198 195 184 206 182 172 176 171 172 183 200 202 174 176 180 193 214 187 177 200 193 192
294 293 294 294 296 299 301 303 302 303 302 298 294 289 288 292 289 303 304 291 287 289 279 274 272 275 279 51 16 330 272 257 222 195 185 187 185 181 196 194 177 171 171 170 170 173 198 228 229 227 227 237 225 230 228 184 174 193 186 189 196 200 191 180 186 188 191 191 183 190 177 174 172 171 175 181 197 207 184 182 187 196 218 215 201 204 190 187
293 293 293 293 294 296 299 302 302 303 302 299 294 291 293 281 266 300 302 279 274 281 275 269 263 246 197 105 41 359 326 253 227 187 184 190 170 172 207 187 170 174 181 186 189 186 208 228 222 220 226 233 228 243 225 181 182 193 186 196 195 194 198 189 195 194 189 190 190 190 174 171 172 172 178 183 193 211 199 197 196 198 218 225 220 214 191 187
292 292 293 293 293 294 297 299 301 302 302 300 292 290 295 275 255 282 288 272 266 267 260 259 259 230 178 146 124 341 319 222 221 184 184 192 163 171 205 189 177 187 190 196 196 187 202 217 216 216 218 222 229 246 218 188 191 191 189 203 196 194 198 195 201 193 191 197 189 190 177 172 179 175 181 189 190 201 209 223 232 220 220 223 225 220 202 193
291 291 293 292 293 293 294 296 298 300 302 304 299 296 304 292 273 278 286 280 268 259 247 235 246 235 193 163 166 219 262 212 210 197 193 190 165 176 200 190 186 195 192 192 195 194 206 215 215 214 212 215 223 237 225 210 211 196 187 198 199 196 199 200 199 180 189 205 182 179 180 179 186 178 182 194 190 200 214 230 242 244 237 229 226 216 209 205
290 290 291 291 292 291 291 293 293 298 304 305 303 311 329 326 298 292 299 293 274 252 246 225 225 234 206 164 160 171 219 213 199 203 201 186 174 186 201 193 188 196 194 193 203 206 210 217 215 210 209 214 220 234 235 230 235 215 191 194 207 198 194 194 190 178 187 200 185 181 184 184 190 186 188 194 194 203 217 229 239 250 252 246 234 218 214 214
290 289 289 289 290 290 289 289 290 297 304 299 300 323 344 352 328 312 305 295 280 247 240 228 218 228 199 157 150 163 215 215 197 199 199 186 184 191 201 198 190 196 199 200 209 211 211 214 210 207 214 224 228 231 234 231 240 235 203 198 213 197 180 176 179 181 188 196 198 193 191 187 186 187 194 198 199 203 213 224 234 250 259 262 255 240 224 217
290 289 289 287 287 288 286 285 288 295 299 291 270 195 218 288 339 304 285 284 282 259 233 231 223 220 188 156 152 196 212 210 204 205 198 187 187 190 201 204 194 198 206 205 210 215 214 212 206 209 217 230 235 227 231 237 242 252 232 213 213 195 181 180 179 176 181 192 200 188 179 181 187 192 197 201 201 201 208 215 223 240 248 253 258 252 229 217
292 289 288 286 285 283 282 282 285 291 290 258 223 212 227 238 246 270 274 281 285 274 234 234 229 217 191 167 185 215 205 208 213 210 203 189 184 190 200 206 201 201 206 206 213 220 217 212 210 216 220 227 239 231 225 236 247 257 256 237 220 197 188 188 179 169 177 190 195 186 171 179 196 198 193 197 201 201 207 210 215 225 230 240 252 254 242 227
291 290 288 286 283 279 277 279 281 285 274 235 232 240 249 252 245 265 285 290 289 284 255 235 227 215 200 183 183 199 205 214 215 207 210 198 184 188 198 204 205 203 207 207 214 224 219 213 213 220 225 223 233 241 228 224 239 250 254 251 236 221 212 198 176 170 182 194 196 195 190 176 188 196 194 197 201 201 208 210 210 216 223 236 247 252 254 245
289 290 288 286 283 278 273 272 278 279 262 238 243 254 259 262 261 281 306 299 292 293 255 223 219 215 209 191 179 190 203 212 211 201 209 209 190 184 194 204 206 203 205 207 213 221 218 215 214 217 227 227 227 236 234 225 224 234 246 253 237 229 235 233 204 189 191 199 199 200 202 179 183 202 204 200 200 199 204 208 209 215 222 230 237 245 253 253
286 286 287 286 282 278 272 265 267 268 258 244 245 250 248 258 259 270 311 296 283 303 224 209 210 213 214 199 187 194 201 203 208 199 202 215 201 188 197 203 207 207 202 208 217 217 217 219 215 211 220 230 230 228 233 232 219 221 228 231 231 225 239 255 222 197 193 200 199 197 201 189 189 205 204 199 202 200 202 207 210 218 224 226 231 237 245 250
283 283 284 282 278 277 273 263 254 257 259 250 247 248 242 251 256 253 292 255 251 301 227 202 203 206 200 194 190 197 205 204 211 201 197 214 208 195 201 197 201 213 205 213 224 219 221 223 217 215 214 222 231 226 229 231 219 222 228 234 242 228 239 261 222 193 193 200 196 191 196 199 195 202 198 197 204 207 212 214 211 214 219 224 229 232 236 241
280 281 281 279 275 272 270 267 254 253 256 253 250 244 236 242 245 237 231 236 255 307 254 200 201 202 182 183 191 198 206 206 211 202 194 209 211 200 203 198 200 217 214 218 227 224 225 224 222 225 218 218 228 223 223 229 227 229 232 240 249 235 239 255 240 230 217 201 210 201 205 213 193 189 194 203 218 227 226 217 211 211 214 221 228 230 231 234
279 279 277 276 272 267 265 265 257 253 250 249 247 235 229 234 230 224 226 239 257 283 249 209 203 202 182 182 192 199 206 205 205 202 192 201 208 201 203 207 210 222 225 221 225 229 229 225 224 225 218 217 225 225 224 225 225 227 226 230 239 232 228 232 241 258 295 206 244 261 256 259 240 197 202 224 248 251 241 224 215 215 217 220 224 226 229 232
278 275 273 273 270 266 261 251 251 253 245 239 239 229 226 228 226 227 229 240 264 244 216 206 199 201 192 187 194 201 207 205 203 203 195 195 202 203 203 206 212 222 227 220 219 227 234 233 222 216 219 218 217 223 221 211 214 224 227 231 235 220 213 219 243 265 271 257 257 271 277 271 261 241 234 247 252 246 241 234 223 220 221 221 221 223 227 232
277 273 269 268 268 267 256 241 244 247 240 230 228 223 218 225 229 226 229 236 238 192 197 203 199 198 194 193 197 203 207 208 205 205 200 197 200 206 207 205 207 217 224 218 217 218 228 238 228 214 217 218 212 213 208 201 210 220 226 232 233 174 143 207 232 255 271 272 265 266 266 262 264 267 264 260 252 241 235 228 221 220 221 222 221 221 225 230
275 272 267 264 266 267 254 238 237 238 236 226 220 217 213 226 232 225 233 236 228 226 238 232 207 192 191 197 199 202 206 207 207 209 203 195 197 204 208 207 205 214 223 221 220 217 216 231 228 216 211 212 211 211 208 204 211 218 222 227 230 211 172 174 172 183 237 247 253 254 249 247 251 259 271 262 248 238 229 221 218 217 216 219 218 220 223 228
272 271 269 263 262 262 251 237 233 231 231 225 220 217 216 226 230 225 232 234 234 248 263 260 235 202 191 200 205 204 207 204 203 210 204 194 196 201 207 210 206 208 219 220 220 221 220 229 226 215 209 211 211 211 212 209 211 217 216 215 220 221 229 236 209 202 218 232 243 241 240 239 233 223 211 222 213 205 208 211 212 211 213 213 213 217 223 227
271 269 269 266 261 258 250 238 231 227 227 224 220 221 222 225 226 225 230 233 242 256 268 278 267 217 190 195 207 209 209 206 202 209 206 196 199 203 205 213 210 207 215 218 216 215 220 234 222 201 200 212 214 210 210 212 216 209 200 200 205 214 232 246 217 208 221 230 241 249 260 244 210 203 213 229 191 146 172 196 202 203 208 210 211 216 222 227
272 270 269 269 264 252 242 236 229 225 224 223 222 225 228 229 228 228 232 239 249 259 277 294 288 232 196 192 202 211 210 207 208 212 207 196 200 208 207 212 215 212 214 218 221 217 217 231 210 189 198 212 211 210 211 219 225 203 193 203 207 213 233 253 258 213 219 223 228 244 250 235 203 200 207 204 154 140 162 182 183 186 196 204 211 215 220 226
274 271 272 274 265 246 236 230 227 225 222 223 227 230 232 233 235 233 233 243 256 266 282 291 288 269 246 211 199 208 211 208 209 212 208 197 200 210 209 210 217 217 214 216 223 221 218 228 214 200 210 210 199 208 216 223 226 210 206 216 213 215 231 241 251 229 192 208 242 241 242 236 229 217 201 186 160 152 162 173 174 177 177 185 199 207 219 226
279 277 281 280 259 245 238 229 227 225 222 223 228 232 233 235 239 237 235 242 257 270 280 282 278 278 272 245 210 202 206 210 211 211 210 203 202 209 210 211 214 216 216 217 223 225 224 236 225 205 208 201 191 205 218 224 222 213 212 211 204 213 225 222 222 209 165 161 232 272 278 273 254 222 200 186 174 169 177 192 204 192 176 179 196 211 228 230
283 285 292 266 236 240 236 225 224 223 223 227 230 232 237 241 244 244 241 243 252 266 276 275 275 277 273 263 243 214 204 207 213 214 209 203 204 208 209 211 212 215 220 219 223 229 231 243 242 206 199 194 189 198 212 219 215 208 212 210 200 206 217 213 217 217 201 162 151 213 296 334 39 192 190 180 176 181 190 192 182 181 192 205 217 225 232 234
282 285 299 186 218 240 234 217 220 223 225 230 233 235 238 243 249 251 248 249 254 261 269 269 272 276 272 266 264 246 213 205 209 212 207 203 207 207 206 212 212 213 220 221 222 226 230 240 238 196 188 194 196 197 202 211 214 210 216 220 216 219 223 210 204 210 210 206 188 170 155 64 125 160 174 174 174 180 184 179 168 173 199 212 213 215 216 225
278 250 156 161 184 210 246 239 233 234 233 234 235 237 240 244 251 255 253 254 257 259 262 262 264 270 269 265 267 271 260 230 214 210 209 205 208 212 213 216 215 211 215 221 223 223 225 236 234 197 189 195 201 202 202 205 214 218 221 226 234 246 250 251 212 198 205 206 200 185 123 131 144 143 145 151 156 156 156 163 168 176 193 196 190 189 203 232
275 226 173 183 193 198 235 251 250 247 244 245 245 243 246 248 253 259 257 254 258 262 260 256 259 266 266 264 268 272 278 282 253 222 216 212 210 217 223 221 213 208 213 221 222 220 223 233 236 208 194 195 201 209 206 199 204 216 219 221 228 238 246 254 248 202 200 196 197 201 116 140 164 163 155 152 152 150 149 154 161 169 180 184 184 197 216 238
271 227 183 196 208 204 216 233 241 247 251 256 256 251 250 250 251 256 257 255 257 261 258 252 255 262 259 253 259 264 261 276 286 261 230 221 216 217 224 223 211 205 211 219 218 215 219 228 230 217 185 188 199 210 202 192 196 212 220 219 218 219 228 245 260 245 208 191 198 197 139 152 167 172 179 176 166 166 174 182 179 177 184 194 210 229 234 242
268 236 192 196 214 224 229 232 236 245 253 255 257 256 253 252 252 253 254 255 254 255 255 255 255 257 254 249 253 262 263 266 277 284 275 244 228 221 222 220 209 205 211 218 217 214 217 223 222 219 203 175 194 213 205 193 192 205 223 231 230 222 219 227 239 251 238 199 206 194 149 154 164 167 174 174 165 166 167 166 175 188 203 214 224 235 247 262
268 239 203 199 205 219 238 248 245 248 252 254 259 261 255 253 254 254 255 255 254 253 254 257 259 258 257 257 256 259 263 266 263 271 293 286 245 228 226 219 211 207 210 214 215 214 217 221 220 222 221 203 196 210 211 197 189 193 215 231 239 239 233 227 224 231 237 225 217 208 172 162 168 175 183 186 183 175 169 176 192 200 200 201 214 234 255 274
264 239 222 213 206 211 226 238 246 252 255 257 263 264 263 259 254 252 253 251 251 255 255 254 254 254 257 262 265 263 261 264 260 259 280 294 282 266 236 219 216 212 209 213 213 212 214 214 216 223 221 212 209 209 200 196 197 199 206 217 227 233 241 242 228 220 224 225 212 204 200 192 187 189 195 197 196 195 200 217 227 218 206 202 213 237 253 262
256 235 228 226 217 213 215 215 225 239 245 256 266 263 262 263 257 252 251 250 252 253 250 248 245 246 252 259 269 276 271 265 263 262 274 289 290 284 250 224 224 216 211 215 214 213 215 207 208 218 217 216 229 234 222 214 215 217 219 216 213 219 235 247 243 227 225 231 223 208 214 220 211 203 204 206 209 221 232 228 218 208 212 216 219 234 255 262
263 250 237 233 228 220 217 216 222 236 242 259 276 268 258 257 256 255 253 256 261 253 240 245 247 246 248 251 262 276 278 271 264 259 268 286 294 280 261 264 250 218 211 216 214 213 222 225 212 213 211 215 231 240 243 246 237 235 245 239 219 220 233 243 250 250 245 251 249 228 221 227 226 222 226 228 227 227 221 211 202 196 204 214 221 241 267 279
269 266 252 240 233 226 225 225 229 241 243 253 279 279 262 254 254 256 253 255 263 259 243 246 251 250 246 247 261 275 279 281 274 260 269 279 284 277 273 286 308 230 211 211 207 204 216 228 228 220 218 219 230 243 247 250 255 256 258 259 244 239 242 244 250 250 245 251 257 244 230 230 228 230 234 230 216 205 196 195 200 205 216 228 238 254 270 281
273 271 265 252 235 228 232 237 242 250 245 261 296 293 269 258 258 257 253 254 257 258 256 253 253 253 247 248 263 273 272 278 293 282 268 268 261 260 271 283 301 308 236 209 205 200 205 216 225 224 227 233 241 253 245 236 244 253 252 251 249 249 250 249 251 249 245 246 246 242 240 231 216 212 214 206 199 197 195 199 211 224 236 246 253 260 269 281
272 271 273 267 244 232 238 246 249 246 242 277 306 297 277 268 268 266 263 261 251 242 253 269 257 246 243 248 261 267 264 267 270 231 218 245 251 251 259 266 270 313 317 233 206 196 190 203 219 216 222 240 244 255 255 235 231 235 235 239 246 261 268 263 267 277 270 256 242 235 233 217 195 193 196 192 191 198 207 221 236 244 249 253 256 260 270 285
Height
3179 3178 3177 3176 3175 3174 3173 3173 3172 3171 3170 3169 3169 3168 3168 3167 3167 3167 3167 3167 3167 3166 3165 3165 3164 3164 3163 3162 3162 3162 3162 3162 3162 3162 3164 3166 3167 3167 3169 3171 3173 3175 3176 3178 3179 3180 3182 3183 3184 3184 3185 3185 3185 3185 3185 3185 3187 3188 3188 3188 3190 3191 3192 3192 3194 3196 3196 3197 3198 3199 3199 3199 3199 3199 3200 3200 3201 3202 3201 3201 3201 3201 3201 3201 3201 3202 3204 3204
3177 3177 3176 3175 3174 3173 3172 3171 3171 3170 3169 3168 3168 3167 3166 3166 3166 3165 3165 3165 3165 3164 3164 3163 3162 3161 3161 3160 3159 3159 3159 3159 3159 3160 3162 3163 3163 3165 3168 3170 3172 3173 3175 3177 3178 3180 3181 3182 3182 3183 3184 3185 3184 3183 3184 3185 3186 3186 3186 3187 3189 3191 3192 3193 3195 3196 3197 3198 3198 3199 3199 3198 3199 3200 3201 3202 3202 3202 3201 3200 3201 3200 3201 3202 3203 3204 3205 3205
3176 3175 3175 3174 3173 3172 3171 3170 3169 3169 3168 3167 3167 3166 3165 3165 3164 3164 3163 3163 3163 3162 3162 3161 3160 3159 3158 3158 3157 3157 3157 3157 3157 3158 3160 3160 3161 3164 3166 3168 3170 3172 3174 3176 3177 3179 3180 3180 3180 3182 3184 3184 3182 3182 3184 3186 3186 3186 3186 3186 3187 3189 3191 3193 3195 3196 3196 3197 3198 3198 3198 3198 3199 3200 3201 3202 3202 3202 3200 3199 3201 3201 3202 3203 3203 3205 3206 3206
3175 3174 3173 3173 3172 3171 3170 3169 3168 3168 3167 3166 3165 3165 3164 3163 3163 3162 3161 3161 3161 3160 3160 3159 3158 3157 3156 3156 3155 3155 3155 3155 3154 3155 3157 3158 3160 3163 3165 3167 3169 3171 3173 3174 3176 3178 3179 3180 3180 3181 3184 3184 3182 3182 3186 3187 3187 3188 3189 3188 3187 3187 3189 3192 3194 3196 3196 3197 3198 3197 3198 3199 3200 3201 3201 3201 3201 3202 3201 3201 3202 3203 3204 3204 3204 3205 3206 3207
3173 3173 3172 3171 3171 3170 3169 3168 3167 3166 3166 3165 3164 3163 3163 3162 3161 3161 3160 3159 3159 3158 3158 3157 3156 3155 3155 3154 3154 3153 3154 3154 3153 3154 3155 3156 3158 3161 3164 3166 3168 3170 3172 3173 3175 3177 3179 3180 3179 3180 3183 3184 3182 3183 3186 3188 3188 3188 3190 3190 3190 3189 3190 3193 3195 3196 3197 3197 3197 3197 3197 3199 3199 3200 3201 3201 3201 3201 3201 3201 3202 3203 3204 3205 3205 3206 3207 3208
3172 3171 3171 3170 3169 3168 3168 3167 3166 3165 3164 3164 3163 3162 3161 3161 3160 3159 3158 3158 3157 3156 3156 3155 3155 3154 3153 3153 3152 3152 3152 3152 3153 3153 3154 3155 3157 3160 3162 3164 3166 3168 3170 3172 3174 3177 3179 3179 3178 3178 3180 3183 3182 3183 3186 3188 3188 3188 3189 3190 3191 3192 3192 3194 3196 3197 3197 3197 3197 3197 3197 3198 3199 3200 3201 3202 3202 3202 3201 3201 3202 3204 3205 3205 3206 3207 3208 3209
3170 3170 3169 3168 3168 3167 3166 3165 3164 3164 3163 3162 3162 3161 3160 3159 3159 3158 3157 3156 3155 3155 3154 3153 3153 3153 3152 3151 3151 3151 3151 3151 3152 3153 3153 3154 3156 3158 3160 3162 3165 3167 3169 3171 3174 3176 3178 3178 3177 3177 3179 3180 3181 3183 3185 3187 3188 3188 3189 3189 3191 3192 3193 3194 3196 3197 3197 3198 3198 3197 3198 3199 3199 3199 3201 3202 3203 3202 3201 3201 3202 3204 3205 3205 3207 3208 3209 3209
3169 3168 3167 3167 3166 3166 3165 3164 3163 3162 3161 3161 3160 3159 3159 3158 3157 3156 3156 3155 3154 3153 3152 3152 3151 3151 3151 3150 3150 3149 3150 3150 3150 3152 3153 3153 3155 3157 3159 3161 3163 3166 3168 3171 3173 3175 3177 3178 3177 3178 3178 3178 3180 3182 3185 3186 3187 3187 3188 3189 3191 3192 3194 3195 3196 3197 3197 3198 3198 3198 3198 3199 3199 3200 3201 3202 3202 3202 3201 3202 3202 3203 3205 3205 3206 3208 3209 3209
3167 3166 3166 3165 3165 3164 3163 3163 3162 3161 3160 3159 3159 3158 3157 3157 3156 3155 3154 3153 3152 3152 3151 3150 3150 3150 3149 3149 3148 3148 3149 3149 3149 3151 3152 3153 3154 3156 3157 3160 3162 3165 3167 3170 3172 3173 3176 3177 3176 3176 3178 3178 3179 3182 3184 3186 3185 3186 3187 3189 3192 3193 3194 3195 3196 3197 3197 3197 3198 3199 3199 3199 3200 3200 3202 3202 3202 3202 3202 3202 3202 3203 3204 3205 3206 3208 3209 3209
3166 3165 3164 3164 3163 3162 3162 3161 3160 3160 3159 3158 3157 3157 3156 3155 3154 3154 3153 3152 3151 3150 3149 3149 3148 3148 3148 3148 3147 3147 3147 3148 3149 3150 3151 3152 3153 3155 3157 3159 3161 3164 3167 3169 3170 3172 3175 3177 3174 3175 3178 3179 3179 3181 3184 3185 3184 3185 3187 3190 3191 3193 3194 3196 3196 3197 3197 3197 3198 3199 3200 3200 3200 3200 3201 3202 3202 3202 3202 3202 3203 3203 3204 3206 3207 3208 3209 3210
3165 3164 3163 3162 3161 3161 3160 3160 3159 3158 3157 3156 3156 3155 3154 3153 3153 3152 3152 3151 3150 3149 3148 3147 3147 3146 3146 3146 3146 3146 3147 3147 3147 3148 3150 3151 3153 3154 3156 3158 3160 3163 3166 3168 3169 3171 3175 3175 3173 3174 3178 3179 3179 3182 3184 3184 3184 3186 3188 3189 3191 3193 3195 3195 3196 3197 3197 3197 3199 3199 3199 3200 3200 3200 3201 3201 3201 3201 3201 3202 3203 3203 3204 3205 3207 3208 3209 3210
3163 3162 3161 3161 3160 3159 3159 3158 3157 3157 3156 3155 3154 3154 3153 3152 3151 3151 3150 3150 3149 3148 3147 3146 3145 3144 3144 3144 3144 3145 3146 3145 3145 3147 3149 3151 3152 3154 3156 3157 3160 3162 3165 3167 3169 3171 3174 3174 3172 3173 3176 3179 3181 3182 3182 3183 3184 3186 3188 3189 3191 3194 3194 3194 3196 3197 3197 3197 3198 3199 3199 3201 3201 3200 3201 3201 3201 3201 3201 3202 3202 3203 3204 3205 3207 3208 3209 3210
3162 3161 3160 3159 3158 3158 3157 3156 3156 3155 3154 3153 3153 3152 3152 3151 3150 3149 3149 3148 3148 3147 3146 3144 3144 3143 3142 3143 3142 3144 3145 3144 3145 3146 3148 3150 3151 3152 3154 3156 3159 3161 3164 3167 3168 3171 3173 3173 3172 3173 3175 3178 3181 3182 3181 3182 3183 3185 3188 3188 3190 3193 3194 3194 3196 3197 3198 3197 3198 3199 3199 3201 3201 3201 3201 3201 3201 3201 3202 3202 3203 3203 3204 3205 3206 3208 3209 3209
3160 3159 3158 3158 3157 3156 3155 3155 3154 3153 3153 3152 3151 3150 3150 3149 3149 3148 3147 3147 3146 3146 3144 3143 3142 3141 3141 3141 3141 3142 3143 3143 3144 3145 3147 3149 3151 3152 3153 3155 3157 3160 3163 3166 3168 3170 3172 3172 3172 3173 3173 3175 3179 3181 3181 3182 3182 3184 3187 3188 3190 3192 3192 3194 3195 3196 3197 3197 3198 3198 3199 3200 3201 3201 3201 3201 3202 3202 3202 3203 3203 3204 3203 3205 3206 3207 3208 3209
3159 3158 3157 3156 3155 3154 3154 3153 3152 3152 3151 3150 3150 3149 3148 3148 3147 3147 3146 3145 3145 3144 3143 3142 3141 3140 3139 3140 3139 3140 3142 3142 3143 3144 3146 3148 3150 3151 3153 3154 3156 3159 3162 3165 3167 3168 3170 3171 3172 3172 3171 3173 3176 3179 3181 3180 3182 3184 3186 3187 3190 3191 3191 3193 3194 3195 3197 3197 3198 3198 3198 3199 3200 3201 3200 3201 3202 3202 3203 3203 3204 3204 3203 3204 3206 3207 3208 3208
3157 3156 3155 3155 3154 3153 3152 3151 3150 3150 3149 3149 3148 3147 3147 3146 3146 3145 3144 3144 3143 3143 3142 3141 3140 3139 3138 3138 3138 3139 3140 3142 3142 3143 3145 3147 3149 3151 3153 3154 3156 3158 3161 3164 3165 3166 3169 3171 3172 3170 3170 3172 3174 3176 3179 3179 3180 3183 3185 3186 3188 3189 3190 3192 3193 3194 3195 3197 3198 3197 3197 3198 3199 3201 3201 3201 3201 3201 3202 3203 3204 3204 3203 3204 3205 3206 3207 3207
3155 3154 3154 3153 3152 3151 3150 3149 3148 3148 3148 3147 3146 3146 3145 3145 3145 3144 3143 3142 3141 3141 3141 3139 3139 3138 3137 3137 3138 3139 3139 3140 3141 3142 3144 3146 3148 3151 3152 3154 3155 3158 3161 3163 3165 3167 3168 3170 3170 3170 3170 3170 3171 3173 3177 3177 3178 3181 3183 3185 3187 3188 3189 3190 3191 3193 3194 3196 3197 3197 3196 3196 3198 3200 3201 3201 3201 3201 3202 3203 3204 3204 3203 3204 3205 3205 3206 3207
3153 3152 3151 3151 3150 3150 3149 3148 3146 3145 3146 3145 3144 3144 3144 3144 3143 3142 3141 3140 3140 3139 3139 3139 3138 3137 3136 3137 3138 3139 3138 3139 3140 3141 3143 3145 3147 3150 3152 3153 3155 3158 3161 3162 3164 3165 3167 3169 3169 3169 3170 3169 3169 3171 3173 3174 3177 3178 3179 3182 3185 3186 3187 3188 3190 3191 3193 3194 3196 3197 3195 3195 3198 3199 3200 3201 3201 3201 3202 3203 3203 3204 3203 3203 3204 3205 3205 3206
3150 3150 3149 3149 3148 3148 3147 3146 3144 3143 3143 3144 3143 3142 3143 3142 3141 3140 3139 3138 3138 3138 3138 3138 3137 3136 3135 3134 3137 3139 3139 3139 3140 3140 3142 3145 3147 3150 3152 3154 3155 3158 3160 3161 3162 3163 3165 3168 3168 3168 3168 3167 3167 3168 3170 3172 3174 3176 3178 3180 3182 3183 3185 3186 3188 3189 3191 3192 3194 3195 3194 3194 3197 3199 3200 3201 3201 3201 3202 3202 3203 3204 3203 3203 3204 3204 3204 3205
3148 3148 3147 3147 3146 3146 3145 3145 3143 3141 3141 3142 3142 3142 3142 3141 3140 3138 3137 3136 3136 3135 3136 3136 3135 3134 3133 3132 3134 3140 3141 3140 3141 3141 3142 3145 3146 3150 3152 3153 3155 3157 3158 3160 3161 3163 3165 3166 3166 3165 3165 3166 3166 3166 3169 3171 3172 3174 3176 3178 3179 3180 3182 3183 3186 3188 3189 3190 3191 3193 3193 3193 3195 3198 3199 3200 3201 3201 3201 3202 3202 3203 3203 3203 3203 3203 3204 3204
3145 3145 3145 3145 3144 3144 3143 3143 3142 3140 3139 3140 3141 3141 3141 3140 3139 3137 3134 3132 3132 3133 3132 3133 3133 3132 3131 3130 3130 3137 3142 3141 3141 3142 3143 3145 3146 3149 3151 3152 3154 3155 3156 3159 3162 3163 3163 3163 3163 3164 3165 3165 3165 3166 3168 3170 3171 3172 3173 3174 3176 3177 3177 3179 3183 3185 3187 3189 3190 3191 3192 3193 3194 3196 3198 3199 3200 3200 3200 3200 3201 3202 3202 3203 3202 3203 3203 3204
3143 3142 3142 3142 3142 3142 3141 3141 3140 3138 3138 3139 3139 3140 3140 3139 3139 3137 3134 3129 3128 3130 3129 3129 3131 3130 3130 3129 3128 3134 3141 3141 3140 3142 3142 3144 3146 3147 3149 3150 3152 3154 3156 3158 3160 3161 3161 3160 3162 3164 3165 3165 3165 3165 3166 3168 3169 3171 3171 3171 3172 3174 3175 3177 3180 3182 3185 3187 3187 3188 3191 3193 3194 3195 3197 3198 3199 3199 3199 3199 3199 3200 3201 3202 3202 3202 3202 3202
3140 3140 3140 3140 3140 3140 3139 3139 3138 3137 3138 3138 3138 3138 3138 3137 3137 3136 3134 3128 3124 3125 3127 3126 3127 3129 3129 3129 3128 3131 3137 3138 3139 3140 3141 3142 3144 3146 3147 3149 3151 3153 3155 3156 3156 3158 3159 3159 3161 3164 3164 3164 3165 3165 3166 3166 3166 3168 3169 3168 3169 3171 3173 3175 3177 3179 3181 3184 3184 3185 3188 3190 3192 3194 3195 3196 3198 3198 3198 3198 3198 3198 3199 3200 3201 3201 3201 3201
3137 3137 3137 3137 3137 3138 3137 3137 3136 3136 3137 3137 3136 3136 3134 3134 3133 3132 3131 3127 3122 3121 3123 3124 3124 3126 3127 3127 3128 3130 3133 3135 3136 3138 3139 3140 3143 3145 3146 3148 3151 3152 3153 3154 3155 3156 3158 3159 3161 3163 3163 3163 3164 3165 3165 3165 3164 3165 3167 3168 3168 3168 3169 3170 3172 3176 3179 3182 3182 3182 3185 3187 3188 3191 3193 3194 3196 3196 3197 3197 3196 3197 3197 3198 3199 3200 3200 3200
3135 3135 3135 3135 3135 3135 3135 3135 3134 3135 3135 3135 3134 3132 3132 3131 3130 3129 3128 3126 3120 3117 3120 3120 3119 3121 3124 3125 3126 3129 3131 3133 3134 3136 3138 3139 3141 3144 3146 3148 3149 3150 3151 3153 3154 3155 3157 3160 3161 3161 3161 3161 3162 3163 3164 3164 3163 3163 3164 3166 3166 3167 3168 3168 3168 3172 3176 3179 3179 3179 3182 3184 3185 3187 3190 3191 3193 3193 3194 3194 3194 3194 3195 3196 3197 3197 3198 3199
3132 3132 3132 3132 3132 3132 3133 3133 3133 3133 3133 3133 3132 3131 3132 3130 3130 3130 3128 3126 3119 3114 3115 3115 3115 3117 3120 3121 3124 3129 3130 3130 3133 3135 3136 3137 3139 3142 3145 3146 3147 3148 3150 3153 3154 3153 3154 3158 3159 3158 3159 3160 3160 3160 3161 3163 3163 3162 3162 3163 3164 3165 3168 3169 3169 3169 3170 3172 3174 3174 3176 3180 3182 3183 3184 3186 3188 3190 3191 3191 3191 3191 3192 3193 3194 3194 3195 3196
3129 3129 3129 3129 3129 3129 3131 3131 3131 3131 3131 3131 3130 3131 3131 3130 3131 3130 3128 3127 3118 3110 3109 3110 3112 3114 3117 3119 3122 3126 3127 3127 3131 3133 3134 3135 3138 3140 3142 3144 3145 3146 3149 3151 3151 3150 3151 3154 3156 3156 3157 3158 3158 3158 3159 3161 3161 3160 3161 3162 3162 3162 3165 3168 3168 3166 3165 3167 3171 3171 3172 3176 3178 3179 3180 3182 3185 3187 3188 3189 3188 3188 3189 3190 3191 3192 3193 3194
3126 3126 3126 3127 3126 3126 3128 3129 3129 3128 3129 3129 3129 3130 3130 3130 3131 3129 3130 3128 3116 3107 3107 3108 3110 3113 3115 3118 3121 3123 3124 3126 3128 3130 3132 3133 3136 3138 3138 3141 3144 3144 3146 3148 3147 3147 3150 3151 3152 3154 3154 3154 3155 3156 3157 3159 3159 3159 3160 3161 3162 3163 3163 3165 3164 3163 3164 3166 3168 3169 3170 3172 3173 3174 3178 3181 3183 3184 3185 3185 3185 3185 3186 3187 3187 3188 3189 3190
3123 3124 3124 3124 3124 3123 3124 3127 3128 3126 3126 3127 3128 3129 3129 3130 3129 3128 3131 3127 3112 3106 3108 3108 3109 3112 3114 3117 3119 3122 3124 3126 3126 3128 3131 3132 3134 3137 3136 3138 3142 3144 3145 3145 3144 3146 3147 3148 3149 3152 3152 3152 3153 3154 3155 3157 3158 3159 3159 3159 3161 3163 3162 3162 3163 3164 3166 3166 3166 3167 3167 3168 3169 3171 3175 3179 3179 3179 3179 3180 3181 3182 3183 3184 3184 3185 3186 3187
3120 3121 3120 3121 3122 3121 3121 3124 3125 3124 3125 3126 3126 3127 3127 3128 3128 3128 3131 3123 3109 3107 3109 3108 3109 3111 3113 3116 3118 3120 3122 3124 3125 3127 3129 3130 3133 3135 3136 3137 3139 3141 3143 3143 3143 3144 3145 3146 3147 3148 3149 3151 3152 3152 3152 3155 3157 3158 3159 3159 3160 3160 3161 3161 3162 3162 3164 3165 3165 3166 3165 3165 3167 3168 3170 3171 3171 3170 3172 3175 3178 3179 3179 3181 3182 3183 3184 3185
3118 3118 3117 3117 3118 3118 3119 3122 3121 3121 3123 3124 3124 3126 3126 3126 3127 3127 3124 3116 3109 3108 3108 3108 3109 3111 3113 3115 3116 3118 3120 3122 3124 3125 3126 3128 3131 3132 3134 3135 3135 3137 3140 3141 3141 3141 3142 3143 3144 3144 3146 3149 3150 3149 3151 3153 3155 3156 3157 3158 3158 3158 3159 3159 3158 3159 3161 3163 3163 3164 3164 3163 3163 3164 3164 3164 3164 3165 3168 3170 3172 3174 3176 3177 3179 3181 3182 3183
3115 3115 3114 3114 3114 3115 3118 3119 3118 3119 3121 3122 3123 3123 3124 3124 3124 3121 3117 3114 3111 3107 3105 3107 3107 3110 3112 3114 3115 3116 3117 3120 3121 3123 3124 3125 3127 3129 3129 3130 3132 3133 3135 3136 3139 3139 3138 3139 3141 3143 3143 3145 3146 3147 3148 3151 3152 3153 3154 3156 3156 3156 3158 3158 3157 3158 3159 3160 3160 3161 3163 3161 3159 3159 3158 3158 3161 3162 3164 3165 3167 3170 3173 3174 3176 3178 3180 3181
3112 3111 3111 3111 3110 3112 3116 3117 3116 3117 3118 3119 3120 3121 3122 3121 3118 3116 3114 3113 3109 3103 3104 3107 3106 3108 3111 3112 3114 3114 3116 3118 3118 3120 3122 3123 3125 3127 3128 3129 3130 3131 3132 3134 3136 3137 3136 3136 3138 3140 3141 3142 3143 3143 3145 3146 3149 3151 3151 3152 3154 3154 3157 3159 3159 3160 3159 3157 3157 3160 3161 3159 3156 3156 3154 3153 3156 3159 3160 3162 3165 3169 3171 3172 3174 3176 3177 3179
3108 3107 3107 3108 3108 3109 3113 3114 3113 3114 3115 3117 3118 3118 3119 3117 3113 3113 3112 3109 3104 3101 3104 3106 3106 3107 3108 3110 3112 3112 3114 3115 3115 3118 3119 3120 3122 3124 3126 3127 3128 3130 3131 3133 3133 3133 3133 3132 3132 3135 3137 3138 3140 3142 3143 3145 3147 3148 3149 3151 3151 3152 3155 3158 3158 3159 3159 3156 3156 3158 3158 3156 3154 3154 3151 3150 3152 3155 3158 3161 3165 3167 3169 3170 3173 3175 3176 3177
3105 3103 3103 3104 3106 3107 3109 3110 3110 3111 3112 3114 3115 3115 3114 3111 3110 3111 3108 3104 3102 3102 3103 3104 3105 3106 3106 3108 3110 3111 3112 3113 3113 3115 3116 3116 3117 3121 3123 3124 3126 3127 3129 3129 3129 3130 3131 3129 3129 3133 3134 3135 3138 3141 3142 3144 3145 3145 3147 3149 3148 3150 3152 3154 3154 3155 3156 3155 3155 3155 3154 3152 3152 3152 3151 3149 3151 3154 3157 3161 3163 3165 3167 3169 3172 3174 3175 3176
3101 3100 3099 3101 3103 3105 3106 3106 3107 3108 3109 3111 3111 3109 3107 3107 3107 3108 3104 3101 3101 3104 3104 3103 3102 3102 3103 3105 3107 3109 3109 3110 3111 3112 3112 3113 3115 3118 3121 3122 3123 3124 3124 3126 3127 3127 3128 3127 3126 3129 3132 3133 3136 3138 3139 3141 3142 3142 3144 3145 3146 3150 3152 3152 3152 3152 3153 3154 3153 3152 3151 3150 3151 3151 3150 3148 3149 3152 3155 3159 3162 3164 3166 3168 3170 3172 3173 3174
3097 3096 3097 3098 3101 3102 3102 3102 3103 3105 3106 3107 3106 3104 3103 3104 3105 3104 3101 3099 3101 3104 3104 3103 3100 3099 3100 3102 3104 3106 3107 3107 3109 3109 3109 3110 3112 3114 3118 3120 3121 3122 3122 3123 3125 3125 3126 3126 3125 3126 3130 3131 3134 3136 3136 3138 3141 3139 3140 3143 3147 3150 3150 3150 3152 3151 3152 3153 3151 3149 3149 3149 3149 3149 3148 3147 3146 3149 3153 3157 3160 3162 3164 3166 3168 3170 3171 3172
3093 3093 3094 3096 3097 3097 3097 3098 3100 3101 3103 3103 3101 3100 3101 3101 3101 3101 3099 3099 3101 3102 3103 3102 3100 3098 3097 3099 3100 3102 3104 3104 3105 3107 3107 3107 3108 3110 3115 3117 3118 3120 3121 3121 3123 3124 3124 3124 3124 3125 3127 3129 3132 3134 3133 3135 3139 3139 3139 3142 3145 3147 3146 3148 3151 3151 3151 3152 3149 3147 3146 3146 3146 3146 3147 3146 3146 3149 3152 3155 3157 3159 3161 3164 3167 3169 3170 3170
3091 3091 3092 3094 3093 3093 3094 3096 3097 3098 3099 3097 3096 3096 3097 3097 3098 3098 3097 3098 3100 3100 3100 3099 3098 3097 3096 3096 3097 3098 3100 3101 3102 3105 3104 3104 3105 3106 3110 3114 3115 3116 3119 3119 3120 3121 3122 3121 3121 3121 3123 3126 3128 3130 3129 3132 3136 3138 3139 3140 3141 3142 3142 3144 3146 3146 3146 3148 3149 3147 3145 3144 3144 3144 3145 3145 3146 3148 3151 3153 3155 3157 3160 3162 3165 3167 3169 3169
3088 3090 3091 3091 3090 3091 3093 3094 3094 3094 3093 3092 3092 3093 3095 3096 3096 3095 3096 3098 3098 3098 3098 3096 3096 3097 3094 3093 3094 3095 3096 3097 3099 3101 3102 3102 3103 3104 3106 3110 3111 3113 3115 3117 3118 3119 3120 3119 3118 3119 3121 3123 3122 3123 3125 3129 3132 3134 3135 3136 3138 3138 3138 3140 3141 3141 3141 3143 3145 3147 3147 3145 3143 3144 3144 3144 3145 3148 3150 3152 3155 3157 3159 3162 3164 3166 3168 3169
3087 3089 3089 3088 3089 3090 3091 3091 3091 3091 3090 3089 3090 3091 3093 3094 3094 3093 3095 3097 3098 3097 3097 3094 3094 3094 3092 3091 3092 3093 3094 3094 3096 3098 3098 3099 3100 3101 3103 3105 3107 3110 3112 3113 3114 3116 3117 3117 3117 3117 3118 3119 3119 3120 3124 3127 3129 3131 3132 3133 3135 3136 3136 3137 3138 3138 3139 3140 3141 3145 3148 3147 3145 3145 3145 3144 3146 3148 3151 3153 3155 3157 3159 3160 3163 3165 3166 3167
3086 3087 3087 3086 3086 3088 3090 3089 3089 3089 3088 3087 3088 3090 3092 3093 3092 3091 3092 3095 3096 3095 3095 3094 3092 3091 3090 3089 3089 3090 3091 3092 3093 3094 3094 3095 3097 3098 3099 3102 3104 3106 3108 3108 3109 3112 3114 3115 3115 3115 3115 3116 3118 3120 3122 3125 3128 3129 3130 3131 3132 3133 3134 3135 3136 3137 3137 3138 3139 3141 3145 3147 3147 3147 3146 3146 3148 3149 3152 3154 3156 3157 3158 3159 3161 3162 3163 3165
3083 3085 3086 3084 3084 3085 3087 3088 3087 3087 3086 3086 3088 3089 3091 3092 3090 3090 3090 3092 3092 3092 3092 3091 3090 3089 3088 3087 3086 3087 3088 3089 3090 3091 3092 3092 3093 3095 3097 3098 3100 3103 3104 3105 3106 3109 3111 3112 3113 3112 3112 3115 3118 3119 3119 3122 3126 3127 3127 3129 3130 3131 3132 3134 3135 3136 3135 3136 3137 3139 3143 3146 3147 3147 3148 3148 3148 3150 3152 3154 3155 3156 3157 3158 3159 3160 3162 3163
3081 3083 3084 3084 3083 3083 3084 3084 3085 3086 3086 3087 3088 3088 3089 3090 3088 3088 3088 3088 3089 3090 3089 3088 3088 3088 3088 3087 3086 3086 3088 3089 3087 3088 3091 3091 3090 3092 3094 3095 3096 3099 3100 3100 3103 3105 3106 3107 3109 3110 3111 3112 3115 3117 3116 3118 3121 3123 3124 3126 3128 3129 3131 3132 3133 3134 3134 3134 3135 3137 3141 3144 3145 3146 3147 3147 3148 3149 3151 3153 3154 3155 3156 3157 3158 3159 3160 3161
3078 3081 3082 3083 3083 3082 3081 3082 3084 3084 3085 3086 3087 3087 3087 3087 3085 3086 3086 3085 3086 3087 3086 3086 3086 3086 3085 3085 3085 3084 3086 3089 3087 3084 3086 3089 3089 3089 3091 3092 3093 3095 3097 3098 3101 3103 3102 3103 3105 3106 3108 3109 3111 3112 3113 3115 3118 3120 3122 3123 3125 3127 3129 3130 3131 3132 3132 3133 3134 3135 3138 3141 3143 3145 3145 3146 3146 3147 3149 3151 3152 3153 3155 3156 3157 3158 3158 3159
3077 3078 3079 3078 3078 3078 3079 3081 3083 3083 3083 3084 3084 3084 3085 3084 3083 3084 3084 3083 3083 3083 3083 3083 3083 3083 3083 3083 3083 3083 3084 3087 3087 3084 3083 3084 3086 3087 3088 3089 3090 3091 3094 3096 3098 3099 3099 3100 3102 3103 3104 3106 3108 3109 3111 3114 3116 3117 3119 3120 3122 3123 3125 3127 3128 3128 3130 3132 3132 3132 3135 3138 3140 3141 3142 3143 3144 3145 3146 3148 3150 3151 3152 3153 3154 3155 3156 3156
3075 3076 3075 3074 3074 3075 3076 3079 3081 3082 3082 3083 3081 3081 3081 3081 3081 3081 3081 3081 3080 3080 3080 3080 3080 3081 3081 3081 3082 3082 3083 3085 3085 3084 3082 3080 3080 3079 3080 3083 3086 3088 3090 3092 3095 3096 3096 3096 3098 3100 3102 3104 3106 3108 3109 3112 3114 3115 3116 3119 3121 3122 3123 3124 3124 3125 3128 3129 3129 3129 3131 3133 3135 3136 3138 3139 3140 3142 3144 3146 3147 3149 3150 3150 3151 3152 3153 3154
3072 3073 3072 3072 3073 3074 3074 3075 3077 3077 3079 3080 3079 3079 3078 3078 3078 3078 3079 3079 3078 3079 3078 3077 3077 3078 3079 3080 3081 3080 3081 3082 3082 3082 3080 3078 3077 3076 3075 3076 3079 3083 3087 3088 3091 3093 3093 3093 3095 3097 3099 3102 3104 3105 3108 3110 3112 3114 3115 3116 3118 3120 3121 3122 3123 3124 3126 3127 3127 3127 3127 3128 3129 3132 3133 3135 3136 3139 3140 3142 3144 3146 3147 3148 3148 3149 3150 3150
3070 3070 3071 3071 3071 3071 3072 3072 3073 3074 3075 3076 3076 3076 3076 3076 3075 3076 3077 3077 3075 3075 3076 3075 3075 3077 3078 3079 3080 3080 3081 3081 3079 3079 3078 3076 3075 3077 3077 3077 3077 3080 3084 3086 3088 3090 3091 3091 3093 3095 3096 3099 3101 3103 3105 3108 3110 3112 3113 3114 3116 3118 3119 3120 3121 3122 3124 3125 3125 3126 3125 3125 3126 3128 3130 3132 3134 3135 3136 3138 3141 3143 3144 3145 3146 3147 3147 3147
3069 3068 3068 3068 3068 3069 3070 3071 3071 3072 3073 3074 3074 3073 3074 3074 3074 3074 3075 3076 3074 3073 3074 3074 3074 3075 3076 3077 3079 3079 3079 3077 3076 3076 3076 3074 3074 3076 3078 3079 3077 3078 3081 3083 3084 3086 3087 3088 3091 3093 3094 3096 3099 3101 3103 3105 3108 3110 3111 3112 3114 3116 3118 3118 3118 3119 3120 3121 3122 3123 3123 3123 3125 3126 3128 3130 3131 3132 3134 3135 3138 3140 3141 3142 3144 3145 3145 3145
3067 3065 3065 3065 3066 3067 3068 3068 3069 3069 3071 3073 3073 3072 3072 3071 3072 3072 3071 3072 3074 3074 3074 3074 3074 3074 3074 3075 3076 3075 3073 3073 3073 3073 3073 3072 3073 3076 3078 3079 3077 3076 3079 3081 3081 3082 3084 3087 3089 3091 3093 3095 3098 3101 3102 3104 3107 3108 3110 3112 3113 3115 3116 3117 3118 3119 3118 3118 3118 3119 3119 3120 3123 3125 3127 3128 3130 3131 3132 3133 3134 3136 3137 3139 3140 3141 3143 3144
3064 3064 3063 3063 3063 3065 3066 3066 3067 3067 3067 3069 3069 3068 3068 3069 3069 3068 3066 3066 3069 3071 3072 3072 3071 3070 3071 3072 3072 3070 3069 3071 3072 3072 3072 3071 3072 3075 3078 3079 3078 3078 3078 3077 3077 3079 3082 3085 3087 3090 3092 3094 3097 3100 3101 3103 3105 3105 3107 3110 3111 3113 3114 3113 3115 3116 3116 3114 3112 3112 3114 3118 3121 3123 3124 3126 3127 3128 3128 3129 3131 3132 3134 3136 3137 3139 3141 3141